Starlink 6368

operational
NORAD ID: 57234 Int'l Des: 2023-094 Owner: SPXS Country: US Constellation: starlink
LEOCIRCULAR

Über Starlink 6368

Beschreibung wird geladen...

Live-Position

3D-Globus wird geladen...

Nächste Überflüge

Höhenverlauf

Altitude vs Time

uPlot chart will show altitude changes over time

Zweizeiliger Elementsatz

1 57234U 23094S 25258.71318449 -.00000361 00000-0 -11620-4 0 9994
2 57234 43.0031 260.6960 0001159 272.9338 87.1372 15.02531919120808
Epoch: 15. Sept. 2025 • Age: 17 hours

Aktueller Status

Höhe 565.1 km
Geschwindigkeit 7.58 km/s
Subsatellitenpunkt -26.31°S, 71.99°E
Startdatum 7. Juli 2023
Alter 2.1 years
Typ internet

Technische Details

Klassifizierung Payload
Masse 305.00 kg
Trockenmasse 290.00 kg
Gesamtmasse 305.00 kg
Länge 0.20 m
Durchmesser 2.80 m
Spannweite 9.00 m
Form Box + pan
Hersteller SPXS
Bus-Typ Starlink
Phasenstatus In Orbit
Besitzer/Staat SPXS/US

Große Konstellationen

Loading constellations...